Time,TemperatureF,DewpointF,PressureIn,WindDirection,WindDirectionDegrees,WindSpeedMPH,WindSpeedGustMPH,Humidity,HourlyPrecipIn,Conditions,Clouds,dailyrainin,SoftwareType,DateUTC
2013-10-28 00:08:00,42.5,41.0,30.11,NW,307,0.0,0.0,94,0.00,,,0.00,weatherlink.com 1.10,2013-10-28 04:08:00,
2013-10-28 00:23:00,42.5,41.0,30.11,NW,308,0.0,0.0,94,0.00,,,0.00,weatherlink.com 1.10,2013-10-28 04:23:00,
2013-10-28 00:38:00,42.5,41.0,30.11,NW,307,0.0,0.0,95,0.00,,,0.00,weatherlink.com 1.10,2013-10-28 04:38:00,
2013-10-28 00:53:00,42.4,41.0,30.11,NW,307,0.0,0.0,95,0.00,,,0.00,weatherlink.com 1.10,2013-10-28 04:53:00,
2013-10-28 01:08:00,42.1,41.0,30.11,NW,307,0.0,0.0,94,0.00,,,0.00,weatherlink.com 1.10,2013-10-28 05:08:00,
2013-10-28 01:23:00,42.2,41.0,30.11,NW,307,0.0,0.0,95,0.00,,,0.00,weatherlink.com 1.10,2013-10-28 05:23:00,
2013-10-28 01:38:00,42.3,41.0,30.11,NW,307,0.0,0.0,95,0.00,,,0.00,weatherlink.com 1.10,2013-10-28 05:38:00,
2013-10-28 01:53:00,42.4,41.0,30.11,NW,307,0.0,0.0,95,0.00,,,0.00,weatherlink.com 1.10,2013-10-28 05:53:00,
2013-10-28 02:08:00,42.7,42.0,30.11,NW,307,0.0,0.0,96,0.00,,,0.00,weatherlink.com 1.10,2013-10-28 06:08:00,
2013-10-28 02:23:00,42.8,42.0,30.11,NW,307,0.0,0.0,96,0.00,,,0.00,weatherlink.com 1.10,2013-10-28 06:23:00,
2013-10-28 02:38:00,42.8,42.0,30.11,NW,307,0.0,0.0,96,0.00,,,0.00,weatherlink.com 1.10,2013-10-28 06:38:00,
2013-10-28 02:53:00,43.0,42.0,30.11,NW,307,0.0,0.0,96,0.00,,,0.00,weatherlink.com 1.10,2013-10-28 06:53:00,
2013-10-28 03:09:00,43.1,42.0,30.11,NW,307,0.0,0.0,96,0.00,,,0.00,weatherlink.com 1.10,2013-10-28 07:09:00,
2013-10-28 03:24:00,43.1,42.0,30.11,NW,307,0.0,0.0,96,0.00,,,0.00,weatherlink.com 1.10,2013-10-28 07:24:00,
2013-10-28 03:39:00,42.9,42.0,30.11,NW,307,0.0,0.0,96,0.00,,,0.00,weatherlink.com 1.10,2013-10-28 07:39:00,
2013-10-28 03:54:00,43.1,42.0,30.11,NW,307,0.0,0.0,96,0.00,,,0.00,weatherlink.com 1.10,2013-10-28 07:54:00,
2013-10-28 04:09:00,43.7,43.0,30.11,NW,307,0.0,0.0,96,0.00,,,0.00,weatherlink.com 1.10,2013-10-28 08:09:00,
2013-10-28 04:24:00,43.8,43.0,30.11,NW,307,0.0,0.0,96,0.00,,,0.00,weatherlink.com 1.10,2013-10-28 08:24:00,
2013-10-28 04:39:00,44.0,43.0,30.12,NW,307,0.0,0.0,96,0.00,,,0.00,weatherlink.com 1.10,2013-10-28 08:39:00,
2013-10-28 04:54:00,44.0,43.0,30.12,NW,307,0.0,0.0,95,0.00,,,0.00,weatherlink.com 1.10,2013-10-28 08:54:00,
2013-10-28 05:09:00,44.0,43.0,30.12,NW,307,0.0,0.0,95,0.00,,,0.00,weatherlink.com 1.10,2013-10-28 09:09:00,
2013-10-28 05:24:00,43.9,43.0,30.12,NW,307,0.0,0.0,95,0.00,,,0.00,weatherlink.com 1.10,2013-10-28 09:24:00,
2013-10-28 05:39:00,44.0,43.0,30.13,NW,307,0.0,0.0,96,0.00,,,0.00,weatherlink.com 1.10,2013-10-28 09:39:00,
2013-10-28 05:54:00,43.8,43.0,30.13,NW,307,0.0,0.0,96,0.00,,,0.00,weatherlink.com 1.10,2013-10-28 09:54:00,
2013-10-28 06:09:00,43.5,43.0,30.14,NW,307,0.0,0.0,96,0.00,,,0.00,weatherlink.com 1.10,2013-10-28 10:09:00,
2013-10-28 06:24:00,43.3,42.0,30.14,NW,307,0.0,0.0,95,0.00,,,0.00,weatherlink.com 1.10,2013-10-28 10:24:00,
2013-10-28 06:39:00,43.1,42.0,30.15,NW,307,0.0,0.0,96,0.00,,,0.00,weatherlink.com 1.10,2013-10-28 10:39:00,
2013-10-28 06:54:00,42.9,42.0,30.16,NW,307,0.0,0.0,96,0.00,,,0.00,weatherlink.com 1.10,2013-10-28 10:54:00,
2013-10-28 07:09:00,42.8,42.0,30.16,NW,307,0.0,0.0,96,0.00,,,0.00,weatherlink.com 1.10,2013-10-28 11:09:00,
2013-10-28 07:24:00,42.7,42.0,30.16,NW,307,0.0,0.0,96,0.00,,,0.00,weatherlink.com 1.10,2013-10-28 11:24:00,
2013-10-28 07:39:00,42.7,42.0,30.17,NW,307,0.0,0.0,96,0.00,,,0.00,weatherlink.com 1.10,2013-10-28 11:39:00,
2013-10-28 07:54:00,42.7,42.0,30.18,NW,307,0.0,0.0,96,0.00,,,0.00,weatherlink.com 1.10,2013-10-28 11:54:00,
2013-10-28 08:09:00,42.9,42.0,30.19,NW,307,0.0,0.0,96,0.00,,,0.00,weatherlink.com 1.10,2013-10-28 12:09:00,
2013-10-28 08:24:00,44.0,43.0,30.19,NW,307,0.0,0.0,97,0.00,,,0.00,weatherlink.com 1.10,2013-10-28 12:24:00,
2013-10-28 08:39:00,45.7,45.0,30.20,NW,307,0.0,0.0,97,0.00,,,0.00,weatherlink.com 1.10,2013-10-28 12:39:00,
2013-10-28 08:54:00,46.7,46.0,30.20,NW,307,0.0,0.0,97,0.00,,,0.00,weatherlink.com 1.10,2013-10-28 12:54:00,
2013-10-28 09:09:00,47.4,46.0,30.21,NW,307,0.0,0.0,96,0.00,,,0.00,weatherlink.com 1.10,2013-10-28 13:09:00,
2013-10-28 09:24:00,48.1,47.0,30.21,NW,307,0.0,0.0,96,0.00,,,0.00,weatherlink.com 1.10,2013-10-28 13:24:00,
2013-10-28 09:39:00,49.0,48.0,30.21,NW,307,0.0,0.0,95,0.00,,,0.00,weatherlink.com 1.10,2013-10-28 13:39:00,
2013-10-28 09:54:00,49.9,49.0,30.21,NW,307,0.0,0.0,95,0.00,,,0.00,weatherlink.com 1.10,2013-10-28 13:54:00,
2013-10-28 10:09:00,51.6,50.0,30.22,NW,307,0.0,1.0,93,0.00,,,0.00,weatherlink.com 1.10,2013-10-28 14:09:00,
2013-10-28 10:24:00,53.7,49.0,30.22,NW,308,0.0,1.0,85,0.00,,,0.00,weatherlink.com 1.10,2013-10-28 14:24:00,
2013-10-28 10:39:00,56.3,50.0,30.22,NW,309,0.0,4.0,79,0.00,,,0.00,weatherlink.com 1.10,2013-10-28 14:39:00,
2013-10-28 10:55:00,57.7,51.0,30.22,NW,311,0.0,3.0,77,0.00,,,0.00,weatherlink.com 1.10,2013-10-28 14:55:00,
2013-10-28 11:10:00,58.9,50.0,30.22,NNW,327,0.0,5.0,73,0.00,,,0.00,weatherlink.com 1.10,2013-10-28 15:10:00,
2013-10-28 11:25:00,59.5,50.0,30.23,West,275,0.0,1.0,70,0.00,,,0.00,weatherlink.com 1.10,2013-10-28 15:25:00,
2013-10-28 11:40:00,60.8,51.0,30.23,West,275,0.0,0.0,69,0.00,,,0.00,weatherlink.com 1.10,2013-10-28 15:40:00,
2013-10-28 11:55:00,61.6,51.0,30.23,West,275,0.0,1.0,69,0.00,,,0.00,weatherlink.com 1.10,2013-10-28 15:55:00,
2013-10-28 12:10:00,61.8,52.0,30.23,SSE,167,0.0,3.0,70,0.00,,,0.00,weatherlink.com 1.10,2013-10-28 16:10:00,
2013-10-28 12:25:00,63.0,51.0,30.23,SSE,167,0.0,3.0,66,0.00,,,0.00,weatherlink.com 1.10,2013-10-28 16:25:00,
2013-10-28 12:40:00,63.5,51.0,30.22,SSE,167,0.0,4.0,65,0.00,,,0.00,weatherlink.com 1.10,2013-10-28 16:40:00,
2013-10-28 12:55:00,64.1,52.0,30.22,SSE,167,0.0,3.0,64,0.00,,,0.00,weatherlink.com 1.10,2013-10-28 16:55:00,
2013-10-28 13:10:00,64.9,51.0,30.21,SSE,167,0.0,1.0,61,0.00,,,0.00,weatherlink.com 1.10,2013-10-28 17:10:00,
2013-10-28 13:25:00,65.6,51.0,30.21,South,182,0.0,3.0,59,0.00,,,0.00,weatherlink.com 1.10,2013-10-28 17:25:00,
2013-10-28 13:40:00,66.6,52.0,30.20,South,182,0.0,4.0,59,0.00,,,0.00,weatherlink.com 1.10,2013-10-28 17:40:00,
2013-10-28 13:55:00,66.8,51.0,30.20,South,191,2.0,4.0,58,0.00,,,0.00,weatherlink.com 1.10,2013-10-28 17:55:00,
2013-10-28 14:10:00,68.1,51.0,30.19,SSW,196,0.0,4.0,55,0.00,,,0.00,weatherlink.com 1.10,2013-10-28 18:10:00,
2013-10-28 14:25:00,67.5,48.0,30.19,NNW,343,0.0,5.0,50,0.00,,,0.00,weatherlink.com 1.10,2013-10-28 18:25:00,
2013-10-28 14:40:00,67.9,48.0,30.18,NNW,343,0.0,1.0,50,0.00,,,0.00,weatherlink.com 1.10,2013-10-28 18:40:00,
2013-10-28 14:55:00,68.2,48.0,30.18,NNW,343,0.0,4.0,49,0.00,,,0.00,weatherlink.com 1.10,2013-10-28 18:55:00,
2013-10-28 15:10:00,69.3,51.0,30.18,NNW,348,0.0,5.0,52,0.00,,,0.00,weatherlink.com 1.10,2013-10-28 19:10:00,
2013-10-28 15:25:00,69.7,50.0,30.18,South,180,0.0,6.0,49,0.00,,,0.00,weatherlink.com 1.10,2013-10-28 19:25:00,
2013-10-28 15:40:00,69.4,49.0,30.18,SW,226,0.0,4.0,48,0.00,,,0.00,weatherlink.com 1.10,2013-10-28 19:40:00,
2013-10-28 15:55:00,68.9,49.0,30.17,SW,217,0.0,3.0,49,0.00,,,0.00,weatherlink.com 1.10,2013-10-28 19:55:00,
2013-10-28 16:10:00,69.4,51.0,30.18,NW,306,1.0,4.0,52,0.00,,,0.00,weatherlink.com 1.10,2013-10-28 20:10:00,
2013-10-28 16:25:00,68.3,50.0,30.18,NW,312,0.0,5.0,53,0.00,,,0.00,weatherlink.com 1.10,2013-10-28 20:25:00,
2013-10-28 16:40:00,67.4,52.0,30.18,NW,312,0.0,0.0,59,0.00,,,0.00,weatherlink.com 1.10,2013-10-28 20:40:00,
2013-10-28 16:55:00,66.5,53.0,30.18,NW,312,0.0,0.0,63,0.00,,,0.00,weatherlink.com 1.10,2013-10-28 20:55:00,
2013-10-28 17:10:00,65.0,53.0,30.18,NW,312,0.0,0.0,66,0.00,,,0.00,weatherlink.com 1.10,2013-10-28 21:10:00,
2013-10-28 17:25:00,63.6,54.0,30.19,NW,312,0.0,0.0,71,0.00,,,0.00,weatherlink.com 1.10,2013-10-28 21:25:00,
2013-10-28 17:40:00,62.0,54.0,30.19,NW,312,0.0,0.0,74,0.00,,,0.00,weatherlink.com 1.10,2013-10-28 21:40:00,
2013-10-28 17:55:00,60.7,54.0,30.19,NW,312,0.0,0.0,78,0.00,,,0.00,weatherlink.com 1.10,2013-10-28 21:55:00,
2013-10-28 18:10:00,59.5,54.0,30.20,NW,312,0.0,0.0,82,0.00,,,0.00,weatherlink.com 1.10,2013-10-28 22:10:00,
2013-10-28 18:25:00,58.8,54.0,30.20,NW,312,0.0,0.0,85,0.00,,,0.00,weatherlink.com 1.10,2013-10-28 22:25:00,
2013-10-28 18:40:00,58.1,54.0,30.20,NW,312,0.0,0.0,86,0.00,,,0.00,weatherlink.com 1.10,2013-10-28 22:40:00,
2013-10-28 18:55:00,57.3,53.0,30.20,NW,312,0.0,0.0,86,0.00,,,0.00,weatherlink.com 1.10,2013-10-28 22:55:00,
2013-10-28 19:10:00,56.6,53.0,30.21,NW,312,0.0,0.0,88,0.00,,,0.00,weatherlink.com 1.10,2013-10-28 23:10:00,
2013-10-28 19:25:00,55.8,53.0,30.21,NW,312,0.0,0.0,89,0.00,,,0.00,weatherlink.com 1.10,2013-10-28 23:25:00,
2013-10-28 19:40:00,55.1,53.0,30.21,NW,312,0.0,0.0,91,0.00,,,0.00,weatherlink.com 1.10,2013-10-28 23:40:00,
2013-10-28 19:55:00,54.4,52.0,30.21,NW,312,0.0,0.0,90,0.00,,,0.00,weatherlink.com 1.10,2013-10-28 23:55:00,
2013-10-28 20:10:00,54.1,52.0,30.22,NW,312,0.0,0.0,92,0.00,,,0.00,weatherlink.com 1.10,2013-10-29 00:10:00,
2013-10-28 20:25:00,53.9,52.0,30.22,NW,312,0.0,0.0,93,0.00,,,0.00,weatherlink.com 1.10,2013-10-29 00:25:00,
2013-10-28 20:40:00,53.9,52.0,30.22,NW,312,0.0,0.0,93,0.00,,,0.00,weatherlink.com 1.10,2013-10-29 00:40:00,
2013-10-28 20:55:00,54.0,52.0,30.23,NW,312,0.0,0.0,93,0.00,,,0.00,weatherlink.com 1.10,2013-10-29 00:55:00,
2013-10-28 21:10:00,54.1,52.0,30.23,NW,312,0.0,0.0,93,0.00,,,0.00,weatherlink.com 1.10,2013-10-29 01:10:00,
2013-10-28 21:25:00,54.2,52.0,30.23,NW,312,0.0,0.0,92,0.00,,,0.00,weatherlink.com 1.10,2013-10-29 01:25:00,
2013-10-28 21:41:00,54.2,52.0,30.23,NW,312,0.0,0.0,92,0.00,,,0.00,weatherlink.com 1.10,2013-10-29 01:41:00,
2013-10-28 21:55:00,54.4,52.0,30.23,NW,312,0.0,0.0,92,0.00,,,0.00,weatherlink.com 1.10,2013-10-29 01:55:00,
2013-10-28 22:10:00,54.2,52.0,30.24,NW,312,0.0,0.0,91,0.00,,,0.00,weatherlink.com 1.10,2013-10-29 02:10:00,
2013-10-28 22:26:00,54.5,52.0,30.24,NW,312,0.0,0.0,91,0.00,,,0.00,weatherlink.com 1.10,2013-10-29 02:26:00,
2013-10-28 22:41:00,54.6,52.0,30.24,NW,312,0.0,0.0,91,0.00,,,0.00,weatherlink.com 1.10,2013-10-29 02:41:00,
2013-10-28 22:56:00,54.6,52.0,30.24,NW,312,0.0,0.0,91,0.00,,,0.00,weatherlink.com 1.10,2013-10-29 02:56:00,
2013-10-28 23:11:00,54.6,52.0,30.23,NW,312,0.0,0.0,91,0.00,,,0.00,weatherlink.com 1.10,2013-10-29 03:11:00,
2013-10-28 23:26:00,54.5,52.0,30.23,NW,312,0.0,0.0,92,0.00,,,0.00,weatherlink.com 1.10,2013-10-29 03:26:00,
2013-10-28 23:41:00,54.3,52.0,30.23,NW,312,0.0,0.0,92,0.00,,,0.00,weatherlink.com 1.10,2013-10-29 03:41:00,
2013-10-28 23:56:00,54.2,52.0,30.23,NW,312,0.0,0.0,92,0.00,,,0.00,weatherlink.com 1.10,2013-10-29 03:56:00,